Flag for U.S.A. Weather past 2 weeks in Louisville, Kentucky, U.S.A.

Now
56 °F

Mostly cloudy.


Feels Like: 54 °F
Forecast: 56 / 72 °F
Wind: 7 mph from Southeast

Location: Standiford Field

Current Time: Apr 2, 2015 at 3:35:25 AM

Latest Report: Apr 2, 2015 at 2:56 AM


Visibility: 10 mi

Pressure: 29.94 "Hg

Humidity: 37%

Dew point: 30 °F

Location of LouisvilleLocation

Historic Weather in Louisville — Graph

°F

Louisville temperature yesterday

Maximum temperature yesterday: 70 °F (at 4:56 PM)
Minimum temperature yesterday: 44 °F (at 5:56 AM)
Average temperature yesterday: 57 °F

Past Weeks' High & Low Weather Summary

 TemperatureHumidityPressure
High76 °F (Mar 25, 3:56 PM)93% (Mar 19, 11:56 PM)30.37 "Hg (Mar 19, 11:56 PM)
Low23 °F (Mar 28, 7:56 AM)17% (Mar 29, 3:56 PM)29.83 "Hg (Mar 26, 5:56 AM)
Average49 °F54%30.10 "Hg
* Reported Mar 18 1:56 AM — Apr 2 1:56 AM, Louisville, Weather by CustomWeather, © 2015

Note: Actual official high and low records may vary slightly from our data, if they occured in-between our weather recording intervals... More about our weather records

Advertising

Louisville weather history for previous 24 hours

 ConditionsComfort  
Time TempWeatherWind HumidityBarometerVisibility
1:56 AM
Thu, Apr 2
55 °FHigh level clouds.7 mph39%29.98 "Hg10 mi
12:56 AM55 °FHigh level clouds.7 mph39%30.01 "Hg10 mi
11:56 PM
Wed, Apr 1
56 °FPartly cloudy.3 mph37%30.04 "Hg10 mi
10:56 PM57 °FPassing clouds.6 mph36%30.04 "Hg10 mi
9:56 PM61 °FPassing clouds.5 mph30%30.06 "Hg10 mi
8:56 PM61 °FScattered clouds.5 mph31%30.05 "Hg10 mi
7:56 PM64 °FBroken clouds.7 mph28%30.05 "Hg10 mi
6:56 PM67 °FBroken clouds.12 mph26%30.06 "Hg10 mi
5:56 PM70 °FBroken clouds.10 mph25%30.06 "Hg10 mi
4:56 PM70 °FPartly sunny.8 mph25%30.07 "Hg10 mi
3:56 PM69 °FPartly sunny.9 mph25%30.08 "Hg10 mi
2:56 PM68 °FPartly sunny.9 mph26%30.10 "Hg10 mi
1:56 PM65 °FPartly sunny.8 mph29%30.12 "Hg10 mi
12:56 PM63 °FPartly sunny.6 mph33%30.14 "Hg10 mi
11:56 AM60 °FScattered clouds.8 mph39%30.15 "Hg10 mi
10:56 AM56 °FPassing clouds.7 mph47%30.15 "Hg10 mi
9:56 AM51 °FPassing clouds.6 mph61%30.14 "Hg9 mi
8:56 AM47 °FSunny.8 mph71%30.15 "Hg7 mi
7:56 AM44 °FClear.3 mph73%30.12 "Hg8 mi
6:56 AM44 °FClear.3 mph71%30.09 "Hg10 mi
5:56 AM44 °FClear.6 mph73%30.07 "Hg10 mi
4:56 AM47 °FClear.6 mph66%30.06 "Hg10 mi
3:56 AM48 °FClear.6 mph63%30.04 "Hg10 mi
Weather by CustomWeather, © 2015

See weather overviewHow to use our weather pages